HAIYANG 2A

导读

HAIYANG 2A(HY-2A/海洋二号A)是中国首枚海洋动力环境卫星,于北京时间2011年8月16日在太原卫星发射中心成功发射。它集成主被动微波遥感器,具备高精度测轨定轨能力,可全天候全天时获取海面风场、浪高、海温等海洋动力参数,为海洋防灾减灾、资源开发和科学研究提供关键数据支撑,是中国海洋遥感卫星体系的重要开篇。

Basic Information
目录编号:
37781
目录名称:
HAIYANG 2A
国际标识:
2011-043A
轨道中心:
EARTH
卫星名称:
HAIYANG 2A
卫星全名:
--
卫星状态:
在轨 (已飞行5506 天)
发射日期:
2011-08-15 UTC
国别 :
中国 (CN)
星等 :
--
This satellite is enrolled in the Space Conjunction Data Service (SCDS) and the current flight risk assessment level is: No High Risk
Orbit Information
数据来源 国际轨道数据 AOE轨道数据
星历时间 2026-09-11T14:07:05+0800
6小时前
查看轨道信息
2026-09-10T18:00:00+0800
1天前
查看轨道信息
半长轴 7372.455km 7372.42km
偏心率 0.000352 0.0003421
轨道倾角 99.344° 99.346°
近地点辐角 130.135° 138.198°
升交点赤经 254.823° 254.009°
平近点角 230.011° 45.448°
近地点 991.722km 991.76km
远地点 996.914km 996.806km
周期 104.997分钟 104.996分钟
每日圈数 13.714646 13.714743
Detailed Information
使用方式:
暂无
2D Orbit Map
3D Orbit Map
Orbit Altitude Analysis Chart
Orbit Inclination Analysis Chart
Orbit Comprehensive Analysis Chart
View Comprehensive Chart
Conjunction Data List
Event ID Objects TCA Miss Dist (km) Collision Risk Probability Collision Risk Index (CRI) Action
CDM_260913-203603-778106-498221
2026-09-13T
20:36:03+0000
0.656 km
远距离
9.26928E-5 中风险 0.74
CDM_260913-072903-778105-739224
LEO 3 (57392)
2026-09-13T
07:29:51+0000
2.420 km
极远距离
1.707096E-6 低风险 0.4
Miss Distance Evolution Trend with All Objects
Collision Probability Evolution Trend with All Objects